Year,Month,Day,Hour,Minute,Value (Times are PST for temperature in C)
2013,09,26,00,00,8.20
2013,09,26,00,01,8.20
2013,09,26,00,02,8.20
2013,09,26,00,03,8.20
2013,09,26,00,04,8.20
2013,09,26,00,05,8.20
2013,09,26,00,06,8.20
2013,09,26,00,07,8.20
2013,09,26,00,08,8.20
2013,09,26,00,09,8.20
2013,09,26,00,10,8.20
2013,09,26,00,11,8.10
2013,09,26,00,12,8.10
2013,09,26,00,13,8.10
2013,09,26,00,14,8.10
2013,09,26,00,15,8.10
2013,09,26,00,16,8.10
2013,09,26,00,17,8.10
2013,09,26,00,18,8.10
2013,09,26,00,19,8.20
2013,09,26,00,20,8.20
2013,09,26,00,21,8.20
2013,09,26,00,22,8.20
2013,09,26,00,23,8.20
2013,09,26,00,24,8.20
2013,09,26,00,25,8.10
2013,09,26,00,26,8.10
2013,09,26,00,27,8.00
2013,09,26,00,28,8.00
2013,09,26,00,29,7.90
2013,09,26,00,30,7.90
2013,09,26,00,31,7.90
2013,09,26,00,32,7.80
2013,09,26,00,33,7.80
2013,09,26,00,34,7.80
2013,09,26,00,35,7.80
2013,09,26,00,36,7.80
2013,09,26,00,37,7.80
2013,09,26,00,38,7.70
2013,09,26,00,39,7.70
2013,09,26,00,40,7.70
2013,09,26,00,41,7.80
2013,09,26,00,42,7.80
2013,09,26,00,43,7.80
2013,09,26,00,44,7.80
2013,09,26,00,45,7.80
2013,09,26,00,46,7.80
2013,09,26,00,47,7.80
2013,09,26,00,48,7.80
2013,09,26,00,49,7.80
2013,09,26,00,50,7.80
2013,09,26,00,51,7.80
2013,09,26,00,52,7.80
2013,09,26,00,53,7.80
2013,09,26,00,54,7.80
2013,09,26,00,55,7.80
2013,09,26,00,56,7.80
2013,09,26,00,57,7.80
2013,09,26,00,58,7.80
2013,09,26,00,59,7.90
2013,09,26,01,00,7.90
2013,09,26,01,01,7.90
2013,09,26,01,02,7.90
2013,09,26,01,03,7.90
2013,09,26,01,04,7.90
2013,09,26,01,05,7.90
2013,09,26,01,06,7.90
2013,09,26,01,07,7.80
2013,09,26,01,08,7.80
2013,09,26,01,09,7.80
2013,09,26,01,10,7.80
2013,09,26,01,11,7.80
2013,09,26,01,12,7.80
2013,09,26,01,13,7.80
2013,09,26,01,14,7.80
2013,09,26,01,15,7.70
2013,09,26,01,16,7.70
2013,09,26,01,17,7.70
2013,09,26,01,18,7.70
2013,09,26,01,19,7.70
2013,09,26,01,20,7.70
2013,09,26,01,21,7.70
2013,09,26,01,22,7.70
2013,09,26,01,23,7.70
2013,09,26,01,24,7.70
2013,09,26,01,25,7.70
2013,09,26,01,26,7.70
2013,09,26,01,27,7.70
2013,09,26,01,28,7.70
2013,09,26,01,29,7.70
2013,09,26,01,30,7.80
2013,09,26,01,31,7.80
2013,09,26,01,32,7.90
2013,09,26,01,33,7.90
2013,09,26,01,34,7.90
2013,09,26,01,35,7.90
2013,09,26,01,36,7.80
2013,09,26,01,37,7.80
2013,09,26,01,38,7.80
2013,09,26,01,39,7.80
2013,09,26,01,40,7.70
2013,09,26,01,41,7.70
2013,09,26,01,42,7.60
2013,09,26,01,43,7.60
2013,09,26,01,44,7.60
2013,09,26,01,45,7.60
2013,09,26,01,46,7.50
2013,09,26,01,47,7.50
2013,09,26,01,48,7.50
2013,09,26,01,49,7.50
2013,09,26,01,50,7.50
2013,09,26,01,51,7.50
2013,09,26,01,52,7.50
2013,09,26,01,53,7.50
2013,09,26,01,54,7.50
2013,09,26,01,55,7.60
2013,09,26,01,56,7.60
2013,09,26,01,57,7.70
2013,09,26,01,58,7.70
2013,09,26,01,59,7.70
2013,09,26,02,00,7.70
2013,09,26,02,01,7.70
2013,09,26,02,02,7.70
2013,09,26,02,03,7.70
2013,09,26,02,04,7.70
2013,09,26,02,05,7.60
2013,09,26,02,06,7.60
2013,09,26,02,07,7.60
2013,09,26,02,08,7.60
2013,09,26,02,09,7.60
2013,09,26,02,10,7.50
2013,09,26,02,11,7.50
2013,09,26,02,12,7.50
2013,09,26,02,13,7.50
2013,09,26,02,14,7.50
2013,09,26,02,15,7.40
2013,09,26,02,16,7.40
2013,09,26,02,17,7.40
2013,09,26,02,18,7.40
2013,09,26,02,19,7.30
2013,09,26,02,20,7.30
2013,09,26,02,21,7.30
2013,09,26,02,22,7.30
2013,09,26,02,23,7.30
2013,09,26,02,24,7.30
2013,09,26,02,25,7.20
2013,09,26,02,26,7.20
2013,09,26,02,27,7.20
2013,09,26,02,28,7.20
2013,09,26,02,29,7.20
2013,09,26,02,30,7.20
2013,09,26,02,31,7.20
2013,09,26,02,32,7.20
2013,09,26,02,33,7.20
2013,09,26,02,34,7.20
2013,09,26,02,35,7.20
2013,09,26,02,36,7.20
2013,09,26,02,37,7.20
2013,09,26,02,38,7.20
2013,09,26,02,39,7.20
2013,09,26,02,40,7.20
2013,09,26,02,41,7.20
2013,09,26,02,42,7.30
2013,09,26,02,43,7.30
2013,09,26,02,44,7.30
2013,09,26,02,45,7.30
2013,09,26,02,46,7.30
2013,09,26,02,47,7.30
2013,09,26,02,48,7.40
2013,09,26,02,49,7.40
2013,09,26,02,50,7.50
2013,09,26,02,51,7.50
2013,09,26,02,52,7.60
2013,09,26,02,53,7.50
2013,09,26,02,54,7.50
2013,09,26,02,55,7.50
2013,09,26,02,56,7.40
2013,09,26,02,57,7.40
2013,09,26,02,58,7.30
2013,09,26,02,59,7.30
2013,09,26,03,00,7.30
2013,09,26,03,01,7.20
2013,09,26,03,02,7.20
2013,09,26,03,06,7.20
2013,09,26,03,07,7.30
2013,09,26,03,08,7.30
2013,09,26,03,09,7.30
2013,09,26,03,10,7.30
2013,09,26,03,11,7.30
2013,09,26,03,12,7.30
2013,09,26,03,13,7.30
2013,09,26,03,14,7.30
2013,09,26,03,15,7.30
2013,09,26,03,16,7.30
2013,09,26,03,17,7.30
2013,09,26,03,18,7.30
2013,09,26,03,19,7.40
2013,09,26,03,20,7.40
2013,09,26,03,21,7.40
2013,09,26,03,22,7.40
2013,09,26,03,23,7.40
2013,09,26,03,24,7.40
2013,09,26,03,25,7.40
2013,09,26,03,26,7.50
2013,09,26,03,27,7.60
2013,09,26,03,28,7.60
2013,09,26,03,29,7.70
2013,09,26,03,30,7.70
2013,09,26,03,31,7.70
2013,09,26,03,32,7.70
2013,09,26,03,33,7.70
2013,09,26,03,34,7.70
2013,09,26,03,35,7.70
2013,09,26,03,36,7.70
2013,09,26,03,37,7.70
2013,09,26,03,38,7.80
2013,09,26,03,39,7.80
2013,09,26,03,40,7.80
2013,09,26,03,41,7.80
2013,09,26,03,42,7.80
2013,09,26,03,43,7.80
2013,09,26,03,44,7.90
2013,09,26,03,45,7.90
2013,09,26,03,46,7.90
2013,09,26,03,47,7.90
2013,09,26,03,48,7.90
2013,09,26,03,49,7.90
2013,09,26,03,50,7.90
2013,09,26,03,51,7.90
2013,09,26,03,52,8.00
2013,09,26,03,53,8.00
2013,09,26,03,54,8.00
2013,09,26,03,55,8.10
2013,09,26,03,56,8.10
2013,09,26,03,57,8.10
2013,09,26,03,58,8.10
2013,09,26,03,59,8.20
2013,09,26,04,00,8.20
2013,09,26,04,01,8.20
2013,09,26,04,02,8.20
2013,09,26,04,03,8.20
2013,09,26,04,04,8.20
2013,09,26,04,05,8.10
2013,09,26,04,06,8.10
2013,09,26,04,07,8.10
2013,09,26,04,08,8.00
2013,09,26,04,09,8.00
2013,09,26,04,10,8.00
2013,09,26,04,11,7.90
2013,09,26,04,12,7.90
2013,09,26,04,13,7.80
2013,09,26,04,14,7.80
2013,09,26,04,15,7.80
2013,09,26,04,16,7.80
2013,09,26,04,17,7.80
2013,09,26,04,18,7.80
2013,09,26,04,19,7.80
2013,09,26,04,20,7.90
2013,09,26,04,21,7.90
2013,09,26,04,22,7.80
2013,09,26,04,23,7.80
2013,09,26,04,24,7.80
2013,09,26,04,25,7.80
2013,09,26,04,26,7.80
2013,09,26,04,27,7.80
2013,09,26,04,28,7.80
2013,09,26,04,29,7.70
2013,09,26,04,30,7.70
2013,09,26,04,31,7.70
2013,09,26,04,32,7.70
2013,09,26,04,33,7.60
2013,09,26,04,34,7.60
2013,09,26,04,35,7.60
2013,09,26,04,36,7.60
2013,09,26,04,37,7.50
2013,09,26,04,38,7.50
2013,09,26,04,39,7.50
2013,09,26,04,40,7.40
2013,09,26,04,41,7.40
2013,09,26,04,42,7.40
2013,09,26,04,43,7.40
2013,09,26,04,44,7.40
2013,09,26,04,45,7.40
2013,09,26,04,46,7.40
2013,09,26,04,47,7.40
2013,09,26,04,48,7.40
2013,09,26,04,49,7.30
2013,09,26,04,50,7.30
2013,09,26,04,51,7.30
2013,09,26,04,52,7.20
2013,09,26,04,53,7.20
2013,09,26,04,54,7.20
2013,09,26,04,55,7.20
2013,09,26,04,56,7.20
2013,09,26,04,57,7.20
2013,09,26,04,58,7.20
2013,09,26,04,59,7.20
2013,09,26,05,00,7.20
2013,09,26,05,01,7.20
2013,09,26,05,02,7.20
2013,09,26,05,03,7.20
2013,09,26,05,04,7.20
2013,09,26,05,05,7.20
2013,09,26,05,06,7.20
2013,09,26,05,07,7.20
2013,09,26,05,08,7.20
2013,09,26,05,09,7.20
2013,09,26,05,10,7.20
2013,09,26,05,11,7.20
2013,09,26,05,12,7.10
2013,09,26,05,13,7.10
2013,09,26,05,14,7.10
2013,09,26,05,15,7.10
2013,09,26,05,16,7.10
2013,09,26,05,17,7.10
2013,09,26,05,18,7.00
2013,09,26,05,19,7.10
2013,09,26,05,20,7.10
2013,09,26,05,21,7.10
2013,09,26,05,22,7.10
2013,09,26,05,23,7.10
2013,09,26,05,24,7.10
2013,09,26,05,25,7.10
2013,09,26,05,26,7.10
2013,09,26,05,27,7.10
2013,09,26,05,28,7.00
2013,09,26,05,29,7.00
2013,09,26,05,30,7.00
2013,09,26,05,31,7.00
2013,09,26,05,32,6.90
2013,09,26,05,33,7.00
2013,09,26,05,34,7.00
2013,09,26,05,35,7.10
2013,09,26,05,36,7.10
2013,09,26,05,37,7.20
2013,09,26,05,38,7.20
2013,09,26,05,39,7.30
2013,09,26,05,40,7.40
2013,09,26,05,41,7.40
2013,09,26,05,42,7.50
2013,09,26,05,43,7.50
2013,09,26,05,44,7.60
2013,09,26,05,45,7.60
2013,09,26,05,46,7.60
2013,09,26,05,47,7.60
2013,09,26,05,48,7.60
2013,09,26,05,49,7.50
2013,09,26,05,50,7.50
2013,09,26,05,51,7.50
2013,09,26,05,52,7.40
2013,09,26,05,53,7.50
2013,09,26,05,54,7.50
2013,09,26,05,55,7.50
2013,09,26,05,56,7.40
2013,09,26,05,57,7.40
2013,09,26,05,58,7.40
2013,09,26,05,59,7.40
2013,09,26,06,00,7.40
2013,09,26,06,01,7.40
2013,09,26,06,02,7.40
2013,09,26,06,03,7.50
2013,09,26,06,04,7.50
2013,09,26,06,05,7.50
2013,09,26,06,06,7.50
2013,09,26,06,07,7.50
2013,09,26,06,08,7.50
2013,09,26,06,09,7.50
2013,09,26,06,10,7.50
2013,09,26,06,11,7.50
2013,09,26,06,12,7.60
2013,09,26,06,13,7.60
2013,09,26,06,14,7.60
2013,09,26,06,15,7.60
2013,09,26,06,16,7.60
2013,09,26,06,17,7.60
2013,09,26,06,18,7.60
2013,09,26,06,19,7.60
2013,09,26,06,20,7.60
2013,09,26,06,21,7.60
2013,09,26,06,22,7.60
2013,09,26,06,23,7.60
2013,09,26,06,24,7.50
2013,09,26,06,25,7.50
2013,09,26,06,26,7.50
2013,09,26,06,27,7.50
2013,09,26,06,28,7.50
2013,09,26,06,29,7.50
2013,09,26,06,30,7.50
2013,09,26,06,31,7.50
2013,09,26,06,32,7.50
2013,09,26,06,33,7.50
2013,09,26,06,34,7.50
2013,09,26,06,35,7.50
2013,09,26,06,36,7.60
2013,09,26,06,37,7.60
2013,09,26,06,38,7.60
2013,09,26,06,39,7.60
2013,09,26,06,40,7.60
2013,09,26,06,41,7.60
2013,09,26,06,42,7.60
2013,09,26,06,43,7.60
2013,09,26,06,44,7.50
2013,09,26,06,45,7.40
2013,09,26,06,46,7.40
2013,09,26,06,47,7.30
2013,09,26,06,48,7.20
2013,09,26,06,49,7.20
2013,09,26,06,50,7.20
2013,09,26,06,51,7.10
2013,09,26,06,52,7.10
2013,09,26,06,53,7.10
2013,09,26,06,54,7.10
2013,09,26,06,55,7.10
2013,09,26,06,56,7.10
2013,09,26,06,57,7.10
2013,09,26,06,58,7.00
2013,09,26,06,59,7.00
2013,09,26,07,00,7.00
2013,09,26,07,01,6.90
2013,09,26,07,02,6.90
2013,09,26,07,03,6.90
2013,09,26,07,04,6.90
2013,09,26,07,05,6.90
2013,09,26,07,06,6.90
2013,09,26,07,07,6.90
2013,09,26,07,08,7.00
2013,09,26,07,09,7.00
2013,09,26,07,10,7.00
2013,09,26,07,11,7.00
2013,09,26,07,12,7.00
2013,09,26,07,13,7.00
2013,09,26,07,14,7.10
2013,09,26,07,15,7.10
2013,09,26,07,16,7.10
2013,09,26,07,17,7.10
2013,09,26,07,18,7.10
2013,09,26,07,19,7.10
2013,09,26,07,20,7.10
2013,09,26,07,21,7.10
2013,09,26,07,22,7.10
2013,09,26,07,23,7.10
2013,09,26,07,24,7.10
2013,09,26,07,25,7.10
2013,09,26,07,26,7.10
2013,09,26,07,27,7.10
2013,09,26,07,28,7.10
2013,09,26,07,29,7.10
2013,09,26,07,30,7.10
2013,09,26,07,31,7.00
2013,09,26,07,32,7.00
2013,09,26,07,33,7.00
2013,09,26,07,34,7.00
2013,09,26,07,35,7.00
2013,09,26,07,36,7.00
2013,09,26,07,37,7.00
2013,09,26,07,38,7.10
2013,09,26,07,39,7.10
2013,09,26,07,40,7.10
2013,09,26,07,41,7.10
2013,09,26,07,42,7.10
2013,09,26,07,43,7.20
2013,09,26,07,44,7.20
2013,09,26,07,45,7.20
2013,09,26,07,46,7.20
2013,09,26,07,47,7.20
2013,09,26,07,48,7.20
2013,09,26,07,49,7.20
2013,09,26,07,50,7.20
2013,09,26,07,51,7.20
2013,09,26,07,52,7.20
2013,09,26,07,53,7.20
2013,09,26,07,54,7.30
2013,09,26,07,55,7.30
2013,09,26,07,56,7.30
2013,09,26,07,57,7.40
2013,09,26,07,58,7.40
2013,09,26,07,59,7.40
2013,09,26,08,00,7.50
2013,09,26,08,01,7.50
2013,09,26,08,02,7.60
2013,09,26,08,03,7.60
2013,09,26,08,04,7.70
2013,09,26,08,05,7.70
2013,09,26,08,06,7.80
2013,09,26,08,07,7.80
2013,09,26,08,08,7.90
2013,09,26,08,09,7.90
2013,09,26,08,10,8.00
2013,09,26,08,11,8.10
2013,09,26,08,12,8.10
2013,09,26,08,13,8.20
2013,09,26,08,14,8.20
2013,09,26,08,15,8.30
2013,09,26,08,16,8.30
2013,09,26,08,17,8.40
2013,09,26,08,18,8.50
2013,09,26,08,19,8.60
2013,09,26,08,20,8.60
2013,09,26,08,21,8.60
2013,09,26,08,22,8.70
2013,09,26,08,23,8.70
2013,09,26,08,24,8.80
2013,09,26,08,25,8.80
2013,09,26,08,26,8.90
2013,09,26,08,27,8.90
2013,09,26,08,28,9.00
2013,09,26,08,29,9.00
2013,09,26,08,30,9.10
2013,09,26,08,31,9.10
2013,09,26,08,32,9.20
2013,09,26,08,33,9.20
2013,09,26,08,34,9.30
2013,09,26,08,35,9.30
2013,09,26,08,36,9.40
2013,09,26,08,37,9.40
2013,09,26,08,38,9.50
2013,09,26,08,39,9.50
2013,09,26,08,40,9.60
2013,09,26,08,41,9.60
2013,09,26,08,42,9.60
2013,09,26,08,43,9.70
2013,09,26,08,44,9.80
2013,09,26,08,45,9.80
2013,09,26,08,46,9.90
2013,09,26,08,47,9.90
2013,09,26,08,48,9.90
2013,09,26,08,49,9.90
2013,09,26,08,50,9.90
2013,09,26,08,51,9.90
2013,09,26,08,52,10.00
2013,09,26,08,53,10.00
2013,09,26,08,54,10.10
2013,09,26,08,55,10.10
2013,09,26,08,56,10.20
2013,09,26,08,57,10.30
2013,09,26,08,58,10.30
2013,09,26,08,59,10.30
2013,09,26,09,00,10.40
2013,09,26,09,01,10.40
2013,09,26,09,02,10.50
2013,09,26,09,03,10.60
2013,09,26,09,04,10.60
2013,09,26,09,05,10.70
2013,09,26,09,06,10.80
2013,09,26,09,07,10.80
2013,09,26,09,08,10.80
2013,09,26,09,09,10.90
2013,09,26,09,10,11.00
2013,09,26,09,11,11.10
2013,09,26,09,12,11.20
2013,09,26,09,13,11.20
2013,09,26,09,14,11.30
2013,09,26,09,15,11.30
2013,09,26,09,16,11.30
2013,09,26,09,17,11.30
2013,09,26,09,18,11.30
2013,09,26,09,19,11.30
2013,09,26,09,20,11.30
2013,09,26,09,21,11.30
2013,09,26,09,22,11.30
2013,09,26,09,23,11.30
2013,09,26,09,24,11.20
2013,09,26,09,25,11.20
2013,09,26,09,26,11.20
2013,09,26,09,27,11.30
2013,09,26,09,28,11.30
2013,09,26,09,29,11.30
2013,09,26,09,30,11.30
2013,09,26,09,31,11.40
2013,09,26,09,32,11.40
2013,09,26,09,33,11.50
2013,09,26,09,34,11.50
2013,09,26,09,35,11.60
2013,09,26,09,36,11.70
2013,09,26,09,37,11.80
2013,09,26,09,38,11.80
2013,09,26,09,39,11.80
2013,09,26,09,40,11.90
2013,09,26,09,41,11.90
2013,09,26,09,42,12.00
2013,09,26,09,43,12.10
2013,09,26,09,44,12.10
2013,09,26,09,45,12.20
2013,09,26,09,46,12.20
2013,09,26,09,47,12.30
2013,09,26,09,48,12.40
2013,09,26,09,49,12.40
2013,09,26,09,50,12.40
2013,09,26,09,51,12.40
2013,09,26,09,52,12.40
2013,09,26,09,53,12.40
2013,09,26,09,54,12.40
2013,09,26,09,55,12.30
2013,09,26,09,56,12.40
2013,09,26,09,57,12.40
2013,09,26,09,58,12.40
2013,09,26,09,59,12.40
2013,09,26,10,00,12.40
2013,09,26,10,01,12.50
2013,09,26,10,02,12.60
2013,09,26,10,03,12.60
2013,09,26,10,04,12.70
2013,09,26,10,05,12.70
2013,09,26,10,06,12.70
2013,09,26,10,07,12.80
2013,09,26,10,08,12.80
2013,09,26,10,09,12.80
2013,09,26,10,10,12.90
2013,09,26,10,11,12.90
2013,09,26,10,12,12.90
2013,09,26,10,13,12.90
2013,09,26,10,14,13.00
2013,09,26,10,15,13.00
2013,09,26,10,16,13.10
2013,09,26,10,17,13.20
2013,09,26,10,18,13.20
2013,09,26,10,19,13.30
2013,09,26,10,20,13.30
2013,09,26,10,21,13.40
2013,09,26,10,22,13.50
2013,09,26,10,23,13.60
2013,09,26,10,24,13.70
2013,09,26,10,25,13.70
2013,09,26,10,26,13.80
2013,09,26,10,27,13.80
2013,09,26,10,28,13.80
2013,09,26,10,29,13.80
2013,09,26,10,30,13.80
2013,09,26,10,31,13.80
2013,09,26,10,32,13.80
2013,09,26,10,33,13.80
2013,09,26,10,34,13.70
2013,09,26,10,35,13.70
2013,09,26,10,36,13.80
2013,09,26,10,37,13.80
2013,09,26,10,38,13.90
2013,09,26,10,39,13.90
2013,09,26,10,40,13.80
2013,09,26,10,41,13.80
2013,09,26,10,42,13.80
2013,09,26,10,43,13.80
2013,09,26,10,44,13.70
2013,09,26,10,45,13.70
2013,09,26,10,46,13.70
2013,09,26,10,47,13.70
2013,09,26,10,48,13.60
2013,09,26,10,49,13.60
2013,09,26,10,50,13.50
2013,09,26,10,51,13.40
2013,09,26,10,52,13.40
2013,09,26,10,53,13.50
2013,09,26,10,54,13.60
2013,09,26,10,55,13.70
2013,09,26,10,56,13.80
2013,09,26,10,57,13.90
2013,09,26,10,58,14.00
2013,09,26,10,59,14.10
2013,09,26,11,00,14.20
2013,09,26,11,01,14.30
2013,09,26,11,02,14.40
2013,09,26,11,03,14.50
2013,09,26,11,04,14.60
2013,09,26,11,05,14.60
2013,09,26,11,06,14.60
2013,09,26,11,07,14.50
2013,09,26,11,08,14.40
2013,09,26,11,09,14.30
2013,09,26,11,10,14.30
2013,09,26,11,11,14.20
2013,09,26,11,12,14.00
2013,09,26,11,13,13.90
2013,09,26,11,14,13.90
2013,09,26,11,15,13.80
2013,09,26,11,16,13.70
2013,09,26,11,17,13.70
2013,09,26,11,18,13.70
2013,09,26,11,19,13.70
2013,09,26,11,20,13.70
2013,09,26,11,21,13.70
2013,09,26,11,22,13.60
2013,09,26,11,23,13.60
2013,09,26,11,24,13.60
2013,09,26,11,25,13.60
2013,09,26,11,26,13.60
2013,09,26,11,27,13.70
2013,09,26,11,28,13.70
2013,09,26,11,29,13.80
2013,09,26,11,30,13.80
2013,09,26,11,31,13.90
2013,09,26,11,32,14.00
2013,09,26,11,33,14.10
2013,09,26,11,34,14.10
2013,09,26,11,35,14.20
2013,09,26,11,36,14.30
2013,09,26,11,37,14.40
2013,09,26,11,38,14.40
2013,09,26,11,39,14.40
2013,09,26,11,40,14.40
2013,09,26,11,41,14.40
2013,09,26,11,42,14.40
2013,09,26,11,43,14.50
2013,09,26,11,44,14.50
2013,09,26,11,45,14.60
2013,09,26,11,46,14.70
2013,09,26,11,47,14.80
2013,09,26,11,48,14.90
2013,09,26,11,49,15.00
2013,09,26,11,50,15.00
2013,09,26,11,51,15.00
2013,09,26,11,52,15.00
2013,09,26,11,53,15.20
2013,09,26,11,54,15.30
2013,09,26,11,55,15.40
2013,09,26,11,56,15.50
2013,09,26,11,57,15.50
2013,09,26,11,58,15.60
2013,09,26,11,59,15.70
2013,09,26,12,00,15.70
2013,09,26,12,01,15.80
2013,09,26,12,02,15.80
2013,09,26,12,03,15.80
2013,09,26,12,04,15.80
2013,09,26,12,05,15.80
2013,09,26,12,06,15.70
2013,09,26,12,07,15.50
2013,09,26,12,08,15.50
2013,09,26,12,09,15.40
2013,09,26,12,10,15.30
2013,09,26,12,11,15.30
2013,09,26,12,12,15.20
2013,09,26,12,13,15.20
2013,09,26,12,14,15.20
2013,09,26,12,15,15.20
2013,09,26,12,16,15.30
2013,09,26,12,17,15.30
2013,09,26,12,18,15.30
2013,09,26,12,19,15.30
2013,09,26,12,20,15.40
2013,09,26,12,21,15.50
2013,09,26,12,22,15.60
2013,09,26,12,23,15.60
2013,09,26,12,24,15.70
2013,09,26,12,25,15.80
2013,09,26,12,26,15.80
2013,09,26,12,27,15.80
2013,09,26,12,28,15.70
2013,09,26,12,29,15.60
2013,09,26,12,30,15.60
2013,09,26,12,31,15.50
2013,09,26,12,32,15.50
2013,09,26,12,33,15.40
2013,09,26,12,34,15.40
2013,09,26,12,35,15.40
2013,09,26,12,36,15.40
2013,09,26,12,37,15.30
2013,09,26,12,38,15.30
2013,09,26,12,39,15.20
2013,09,26,12,40,15.20
2013,09,26,12,41,15.00
2013,09,26,12,42,15.00
2013,09,26,12,43,15.10
2013,09,26,12,44,15.10
2013,09,26,12,45,15.20
2013,09,26,12,46,15.20
2013,09,26,12,47,15.10
2013,09,26,12,48,15.20
2013,09,26,12,49,15.20
2013,09,26,12,50,15.20
2013,09,26,12,51,15.30
2013,09,26,12,52,15.40
2013,09,26,12,53,15.50
2013,09,26,12,54,15.60
2013,09,26,12,55,15.70
2013,09,26,12,56,15.80
2013,09,26,12,57,15.80
2013,09,26,12,58,15.90
2013,09,26,12,59,15.90
2013,09,26,13,00,16.00
2013,09,26,13,01,16.00
2013,09,26,13,02,16.00
2013,09,26,13,03,15.90
2013,09,26,13,04,15.90
2013,09,26,13,05,15.80
2013,09,26,13,06,15.80
2013,09,26,13,07,15.80
2013,09,26,13,08,15.90
2013,09,26,13,09,16.00
2013,09,26,13,10,16.10
2013,09,26,13,11,16.20
2013,09,26,13,12,16.30
2013,09,26,13,13,16.30
2013,09,26,13,14,16.20
2013,09,26,13,15,16.10
2013,09,26,13,16,15.90
2013,09,26,13,17,15.90
2013,09,26,13,18,15.80
2013,09,26,13,19,15.80
2013,09,26,13,20,15.90
2013,09,26,13,21,15.90
2013,09,26,13,22,16.00
2013,09,26,13,23,16.00
2013,09,26,13,24,16.10
2013,09,26,13,25,16.10
2013,09,26,13,26,16.20
2013,09,26,13,27,16.20
2013,09,26,13,28,16.10
2013,09,26,13,29,16.10
2013,09,26,13,30,16.10
2013,09,26,13,31,16.20
2013,09,26,13,32,16.20
2013,09,26,13,33,16.30
2013,09,26,13,34,16.40
2013,09,26,13,35,16.40
2013,09,26,13,36,16.60
2013,09,26,13,37,16.70
2013,09,26,13,38,16.80
2013,09,26,13,39,16.90
2013,09,26,13,40,16.90
2013,09,26,13,41,17.00
2013,09,26,13,42,17.00
2013,09,26,13,43,17.10
2013,09,26,13,44,17.10
2013,09,26,13,45,17.10
2013,09,26,13,46,17.20
2013,09,26,13,47,17.10
2013,09,26,13,48,17.00
2013,09,26,13,49,16.90
2013,09,26,13,50,16.80
2013,09,26,13,51,16.70
2013,09,26,13,52,16.70
2013,09,26,13,53,16.60
2013,09,26,13,54,16.60
2013,09,26,13,55,16.60
2013,09,26,13,56,16.60
2013,09,26,13,57,16.60
2013,09,26,13,58,16.50
2013,09,26,13,59,16.50
2013,09,26,14,00,16.50
2013,09,26,14,01,16.50
2013,09,26,14,02,16.50
2013,09,26,14,03,16.50
2013,09,26,14,04,16.50
2013,09,26,14,05,16.40
2013,09,26,14,06,16.40
2013,09,26,14,07,16.50
2013,09,26,14,08,16.40
2013,09,26,14,09,16.40
2013,09,26,14,10,16.50
2013,09,26,14,11,16.50
2013,09,26,14,12,16.60
2013,09,26,14,13,16.70
2013,09,26,14,14,16.80
2013,09,26,14,15,16.90
2013,09,26,14,16,17.00
2013,09,26,14,17,17.10
2013,09,26,14,18,17.20
2013,09,26,14,19,17.30
2013,09,26,14,20,17.40
2013,09,26,14,21,17.50
2013,09,26,14,22,17.60
2013,09,26,14,23,17.60
2013,09,26,14,24,17.60
2013,09,26,14,25,17.60
2013,09,26,14,26,17.60
2013,09,26,14,27,17.60
2013,09,26,14,28,17.50
2013,09,26,14,29,17.50
2013,09,26,14,30,17.60
2013,09,26,14,31,17.70
2013,09,26,14,32,17.80
2013,09,26,14,33,17.80
2013,09,26,14,34,17.80
2013,09,26,14,35,17.90
2013,09,26,14,36,18.00
2013,09,26,14,37,18.10
2013,09,26,14,38,18.20
2013,09,26,14,39,18.10
2013,09,26,14,40,18.00
2013,09,26,14,41,18.00
2013,09,26,14,42,18.00
2013,09,26,14,43,18.00
2013,09,26,14,44,18.00
2013,09,26,14,45,18.00
2013,09,26,14,46,17.90
2013,09,26,14,47,17.90
2013,09,26,14,48,17.80
2013,09,26,14,49,17.80
2013,09,26,14,50,17.70
2013,09,26,14,51,17.70
2013,09,26,14,52,17.80
2013,09,26,14,53,17.80
2013,09,26,14,54,17.90
2013,09,26,14,55,17.90
2013,09,26,14,56,17.90
2013,09,26,14,57,17.90
2013,09,26,14,58,17.90
2013,09,26,14,59,17.90
2013,09,26,15,00,17.90
2013,09,26,15,01,17.80
2013,09,26,15,02,17.70
2013,09,26,15,03,17.70
2013,09,26,15,04,17.60
2013,09,26,15,05,17.60
2013,09,26,15,06,17.60
2013,09,26,15,07,17.60
2013,09,26,15,08,17.60
2013,09,26,15,09,17.60
2013,09,26,15,10,17.70
2013,09,26,15,11,17.70
2013,09,26,15,12,17.70
2013,09,26,15,13,17.60
2013,09,26,15,14,17.60
2013,09,26,15,15,17.50
2013,09,26,15,16,17.50
2013,09,26,15,17,17.60
2013,09,26,15,18,17.50
2013,09,26,15,19,17.40
2013,09,26,15,20,17.40
2013,09,26,15,21,17.30
2013,09,26,15,22,17.30
2013,09,26,15,23,17.30
2013,09,26,15,24,17.30
2013,09,26,15,25,17.20
2013,09,26,15,26,17.20
2013,09,26,15,27,17.10
2013,09,26,15,28,17.10
2013,09,26,15,29,17.10
2013,09,26,15,30,17.10
2013,09,26,15,31,17.10
2013,09,26,15,32,17.20
2013,09,26,15,33,17.20
2013,09,26,15,34,17.30
2013,09,26,15,35,17.30
2013,09,26,15,36,17.30
2013,09,26,15,37,17.30
2013,09,26,15,38,17.30
2013,09,26,15,39,17.30
2013,09,26,15,40,17.40
2013,09,26,15,41,17.40
2013,09,26,15,42,17.40
2013,09,26,15,43,17.30
2013,09,26,15,44,17.30
2013,09,26,15,45,17.40
2013,09,26,15,46,17.40
2013,09,26,15,47,17.50
2013,09,26,15,48,17.50
2013,09,26,15,49,17.50
2013,09,26,15,50,17.60
2013,09,26,15,51,17.70
2013,09,26,15,52,17.70
2013,09,26,15,53,17.70
2013,09,26,15,54,17.60
2013,09,26,15,55,17.50
2013,09,26,15,56,17.40
2013,09,26,15,57,17.30
2013,09,26,15,58,17.30
2013,09,26,15,59,17.20
2013,09,26,16,00,17.20
2013,09,26,16,01,17.20
2013,09,26,16,02,17.20
2013,09,26,16,03,17.10
2013,09,26,16,04,17.10
2013,09,26,16,05,17.00
2013,09,26,16,06,17.00
2013,09,26,16,07,16.90
2013,09,26,16,08,16.90
2013,09,26,16,09,16.80
2013,09,26,16,10,16.70
2013,09,26,16,11,16.60
2013,09,26,16,12,16.50
2013,09,26,16,13,16.50
2013,09,26,16,14,16.60
2013,09,26,16,15,16.60
2013,09,26,16,16,16.60
2013,09,26,16,17,16.70
2013,09,26,16,18,16.70
2013,09,26,16,19,16.80
2013,09,26,16,20,16.90
2013,09,26,16,21,16.90
2013,09,26,16,22,16.80
2013,09,26,16,23,16.70
2013,09,26,16,24,16.60
2013,09,26,16,25,16.50
2013,09,26,16,26,16.40
2013,09,26,16,27,16.40
2013,09,26,16,28,16.30
2013,09,26,16,29,16.30
2013,09,26,16,30,16.20
2013,09,26,16,31,16.20
2013,09,26,16,32,16.20
2013,09,26,16,33,16.20
2013,09,26,16,34,16.20
2013,09,26,16,35,16.30
2013,09,26,16,36,16.20
2013,09,26,16,37,16.20
2013,09,26,16,38,16.10
2013,09,26,16,39,16.10
2013,09,26,16,40,16.00
2013,09,26,16,41,16.00
2013,09,26,16,42,16.10
2013,09,26,16,43,16.10
2013,09,26,16,44,16.10
2013,09,26,16,45,16.10
2013,09,26,16,46,16.00
2013,09,26,16,47,16.00
2013,09,26,16,48,15.90
2013,09,26,16,49,15.90
2013,09,26,16,50,15.90
2013,09,26,16,51,15.80
2013,09,26,16,52,15.80
2013,09,26,16,53,15.80
2013,09,26,16,54,15.80
2013,09,26,16,55,15.90
2013,09,26,16,56,15.90
2013,09,26,16,57,15.90
2013,09,26,16,58,15.80
2013,09,26,16,59,15.80
2013,09,26,17,00,15.80
2013,09,26,17,01,15.80
2013,09,26,17,02,15.80
2013,09,26,17,03,15.90
2013,09,26,17,04,15.90
2013,09,26,17,05,15.90
2013,09,26,17,06,15.90
2013,09,26,17,07,15.90
2013,09,26,17,08,15.90
2013,09,26,17,09,16.00
2013,09,26,17,10,16.00
2013,09,26,17,11,16.00
2013,09,26,17,12,16.00
2013,09,26,17,13,15.90
2013,09,26,17,14,15.90
2013,09,26,17,15,15.80
2013,09,26,17,16,15.70
2013,09,26,17,17,15.70
2013,09,26,17,18,15.70
2013,09,26,17,19,15.60
2013,09,26,17,20,15.60
2013,09,26,17,21,15.60
2013,09,26,17,22,15.50
2013,09,26,17,23,15.50
2013,09,26,17,24,15.40
2013,09,26,17,25,15.40
2013,09,26,17,26,15.40
2013,09,26,17,27,15.40
2013,09,26,17,28,15.40
2013,09,26,17,29,15.40
2013,09,26,17,30,15.30
2013,09,26,17,31,15.30
2013,09,26,17,32,15.30
2013,09,26,17,33,15.40
2013,09,26,17,34,15.40
2013,09,26,17,35,15.40
2013,09,26,17,36,15.40
2013,09,26,17,37,15.40
2013,09,26,17,38,15.40
2013,09,26,17,39,15.40
2013,09,26,17,40,15.40
2013,09,26,17,41,15.30
2013,09,26,17,42,15.30
2013,09,26,17,43,15.30
2013,09,26,17,44,15.20
2013,09,26,17,45,15.20